Location: Lake Runnemede Observatory
(43.4843°N, 72.3851°W)
Time: 04:24:32
(UTC-04:00)

Amateur Radio Satellites - All Passes

Search period start: 29 September 2016 03:54
Search period end: 30 September 2016 03:54
Location: Lake Runnemede Observatory, 43.4843°N, 72.3851°W

Satellite Date Start Highest point End Downlink Frequencies (MHz)
Time Altitude Azimuth
AIST 1 29 Sep 04:01:29 04:01:51 10° 82° (E) 04:02:13
SWISSCUBE 29 Sep 04:04:27 04:05:27 11° 272° (W) 04:06:29 437.505
KKS-1 29 Sep 04:07:46 04:12:13 78° 258° (WSW) 04:16:41 437.445
AO-85 29 Sep 04:19:40 04:22:33 17° 38° (NE) 04:25:19 145.980
Oscar 19 29 Sep 04:22:30 04:23:44 11° 305° (NW) 04:24:58 437.125/150
AIST 2 29 Sep 04:23:02 04:27:01 49° 309° (NW) 04:31:04 435.215
YUBILEINY 29 Sep 04:32:43 04:40:45 39° 289° (WNW) 04:48:49 435.215
RS-15 29 Sep 04:35:27 04:47:55 75° 52° (NE) 05:00:06 29.354- 29.394
STARS 29 Sep 04:38:04 04:42:27 76° 257° (WSW) 04:46:51 437.465
Cosmos 2504 29 Sep 04:38:31 04:45:53 74° 280° (W) 04:53:04 435.465 / 435.565
AO-7 29 Sep 04:55:28 05:03:49 87° 109° (ESE) 05:12:09 29.400- 29.500
CUSAT 1 29 Sep 05:04:22 05:11:13 32° 65° (ENE) 05:17:07 437.405
DANDE 29 Sep 05:04:33 05:10:08 19° 57° (ENE) 05:15:34 436.750
CUBESAT XI-V 29 Sep 05:14:05 05:18:47 81° 257° (WSW) 05:23:33 437.345
PCSat 29 Sep 05:15:28 05:20:43 50° 307° (NW) 05:26:00 145.827
ITAMSAT 1 29 Sep 05:15:58 05:20:01 23° 297° (WNW) 05:24:05 435.822/435.867
HORYU 2 29 Sep 05:18:14 05:21:53 24° 95° (E) 05:25:32 437.375
AIST 1 29 Sep 05:34:23 05:38:46 74° 278° (W) 05:43:10
CUTE-I 29 Sep 05:46:39 05:48:32 12° 88° (E) 05:50:26 437.470
Cubesat XI-IV 29 Sep 05:46:58 05:48:48 12° 88° (E) 05:50:38 437.490
BRITE-PL 29 Sep 05:54:21 05:58:43 35° 95° (E) 06:02:48 437.365/2234.400
AO-85 29 Sep 05:59:19 06:03:27 64° 240° (WSW) 06:07:19 145.980
O/OREOS (USA 219) 29 Sep 06:02:30 06:04:37 13° 98° (E) 06:06:44 437.305
NOAA 18 29 Sep 06:36:37 06:41:15 27° 95° (E) 06:45:52 137.9125
Cosmos 2504 29 Sep 06:37:26 06:40:38 13° 301° (WNW) 06:43:50 435.465 / 435.565
DANDE 29 Sep 06:45:55 06:54:23 76° 78° (ENE) 07:02:11 436.750
CUSAT 1 29 Sep 06:46:10 06:53:38 54° 268° (W) 06:59:51 437.405
STRAND 1 29 Sep 06:48:12 06:53:06 49° 70° (ENE) 06:58:02 437.568
RS-15 29 Sep 06:48:54 06:59:25 35° 256° (WSW) 07:09:44 29.354- 29.394
AO-7 29 Sep 06:49:25 06:55:37 24° 309° (NW) 07:01:50 29.400- 29.500
HORYU 2 29 Sep 06:54:29 06:58:28 33° 292° (WNW) 07:02:28 437.375
GONETS M04 29 Sep 07:02:02 07:07:11 17° 75° (ENE) 07:12:19
LilacSat-2 29 Sep 07:02:06 07:05:56 68° 100° (E) 07:09:46 437.200
NOAA 15 29 Sep 07:03:13 07:08:32 73° 103° (ESE) 07:13:48 137.62
PCSat 29 Sep 07:03:26 07:05:27 12° 328° (NNW) 07:07:29 145.827
GOMX 1 29 Sep 07:14:51 07:19:16 81° 286° (WNW) 07:23:28 467.674
CUTE-I 29 Sep 07:23:54 07:29:18 90° 274° (W) 07:34:40 437.470
Cubesat XI-IV 29 Sep 07:24:12 07:29:35 90° 89° (E) 07:34:58 437.490
DOVE 4 29 Sep 07:29:18 07:33:28 58° 101° (E) 07:37:31 437.250
BRITE-PL 29 Sep 07:33:08 07:37:02 25° 295° (WNW) 07:40:43 437.365/2234.400
O/OREOS (USA 219) 29 Sep 07:38:53 07:43:24 66° 295° (WNW) 07:48:00 437.305
PRISM 29 Sep 07:40:33 07:43:00 15° 63° (ENE) 07:45:27 437.425
Cosmos 2499 29 Sep 07:47:02 07:52:27 24° 83° (E) 07:57:51 435.465 / 435.565
NOAA 18 29 Sep 08:16:54 08:22:02 43° 293° (WNW) 08:27:10 137.9125
HO-68 29 Sep 08:20:23 08:27:12 45° 99° (E) 08:33:59 435.675
SEEDS 29 Sep 08:22:50 08:26:35 29° 96° (E) 08:30:19 437.485
CUTE 1.7 + AOD 2 29 Sep 08:23:45 08:27:52 43° 98° (E) 08:31:57 437.475
CANX-2 29 Sep 08:25:14 08:29:27 52° 99° (E) 08:33:39 2200.000
STRAND 1 29 Sep 08:28:44 08:32:33 21° 267° (W) 08:36:22 437.568
DANDE 29 Sep 08:29:49 08:36:20 26° 278° (W) 08:42:31 436.750
BEESAT 2 29 Sep 08:30:30 08:32:50 15° 38° (NE) 08:35:11 435.950
CINEMA 3 29 Sep 08:30:56 08:35:06 71° 103° (ESE) 08:39:21 145.822/145.860
LilacSat-2 29 Sep 08:38:59 08:39:41 10° 298° (WNW) 08:40:23 437.200
AAUSAT CUBESAT 2 29 Sep 08:41:29 08:44:58 25° 94° (E) 08:48:26 437.432
NOAA 15 29 Sep 08:44:23 08:47:42 17° 301° (WNW) 08:51:01 137.62
GONETS M04 29 Sep 08:53:42 09:02:33 83° 96° (E) 09:11:27
CUTE-I 29 Sep 09:05:55 09:08:34 14° 303° (WNW) 09:11:15 437.470
Cubesat XI-IV 29 Sep 09:06:12 09:08:54 14° 303° (WNW) 09:11:35 437.490
ANTELSAT 29 Sep 09:07:22 09:10:07 17° 64° (ENE) 09:12:53 437.575/2403.000
BEESAT 3 29 Sep 09:08:36 09:12:30 51° 52° (NE) 09:16:22 437.485
DOVE 4 29 Sep 09:08:41 09:10:41 13° 298° (WNW) 09:12:39 437.250
PRISM 29 Sep 09:13:48 09:17:53 52° 259° (W) 09:21:59 437.425
TIGRISAT 29 Sep 09:26:37 09:30:06 25° 67° (ENE) 09:33:34 435.000
COMPASS 1 29 Sep 09:26:43 09:30:58 79° 286° (WNW) 09:35:10 437.405
FUNcube-1 29 Sep 09:27:05 09:30:58 31° 96° (E) 09:34:53 145.935
CUBEBUG 2 29 Sep 09:28:39 09:32:58 83° 105° (ESE) 09:37:23 437.445
Cosmos 2499 29 Sep 09:37:57 09:44:58 60° 282° (WNW) 09:51:58 435.465 / 435.565
UWE-3 29 Sep 09:43:39 09:47:59 80° 104° (ESE) 09:52:25 435.000/436.395/437.385
DELFI C3 29 Sep 09:49:15 09:52:21 21° 94° (E) 09:55:26 145.870
SEEDS 29 Sep 09:58:38 10:02:11 26° 292° (WNW) 10:05:42 437.485
CUTE 1.7 + AOD 2 29 Sep 10:00:23 10:03:24 19° 295° (WNW) 10:06:24 437.475
CANX-2 29 Sep 10:02:14 10:04:53 16° 296° (WNW) 10:07:33 2200.000
Oscar 11 29 Sep 10:04:54 10:09:18 82° 104° (ESE) 10:13:39 145.826/435.025
UNISAT 6 29 Sep 10:06:50 10:11:04 72° 75° (ENE) 10:15:20 437.425
BEESAT 2 29 Sep 10:07:08 10:11:11 80° 238° (WSW) 10:15:11 435.950
JAS-2 29 Sep 10:07:43 10:12:08 18° 53° (NE) 10:16:50 435.910
HO-68 29 Sep 10:08:20 10:14:47 38° 298° (WNW) 10:21:14 435.675
ZACube-1 29 Sep 10:09:40 10:14:01 85° 283° (WNW) 10:18:27 437.345
CINEMA 3 29 Sep 10:10:20 10:11:43 11° 298° (WNW) 10:13:05 145.822/145.860
AAUSAT CUBESAT 2 29 Sep 10:16:47 10:20:25 29° 291° (WNW) 10:24:02 437.432
HUMSAT D 29 Sep 10:17:30 10:20:56 23° 94° (E) 10:24:22 437.325/437.525
QB50P2 29 Sep 10:21:58 10:24:30 16° 63° (ENE) 10:27:03 145.880/145.840
POLYITAN 1 29 Sep 10:24:10 10:26:42 16° 63° (ENE) 10:29:14 437.675
PHONESAT 2.4 29 Sep 10:36:04 10:38:26 22° 160° (SSE) 10:40:48 2401.200-2431.200
ANTELSAT 29 Sep 10:42:23 10:46:29 46° 261° (W) 10:50:36 437.575/2403.000
BEESAT 3 29 Sep 10:47:20 10:49:45 16° 249° (WSW) 10:52:10 437.485
GONETS M04 29 Sep 10:53:49 11:00:30 23° 298° (WNW) 11:07:14
BUGSAT 1 29 Sep 10:56:43 10:58:26 12° 62° (ENE) 11:00:10 437.445
DUCHIFAT 1 29 Sep 10:58:32 11:02:12 30° 69° (ENE) 11:05:52 145.980
QB50P1 29 Sep 11:02:09 11:06:02 38° 70° (ENE) 11:09:55 145.935-145.965
TIGRISAT 29 Sep 11:02:56 11:06:41 30° 264° (W) 11:10:27 435.000
FUNcube-1 29 Sep 11:03:30 11:07:05 26° 292° (WNW) 11:10:43 145.935
AIST 2 29 Sep 11:05:17 11:08:29 21° 42° (NE) 11:11:42 435.215
CUBEBUG 2 29 Sep 11:07:58 11:08:58 11° 299° (WNW) 11:09:59 437.445
POPSAT HIP 1 29 Sep 11:15:37 11:19:41 52° 72° (ENE) 11:23:46 437.405
UWE-3 29 Sep 11:22:31 11:23:51 11° 299° (WNW) 11:25:12 435.000/436.395/437.385
ESTCUBE 1 29 Sep 11:22:38 11:25:54 19° 92° (E) 11:29:09 437.505/2401.250
DELFI C3 29 Sep 11:23:39 11:27:14 31° 290° (WNW) 11:30:47 145.870
NANOSAT C BR1 29 Sep 11:30:41 11:34:52 74° 76° (ENE) 11:39:04 145.865
Oscar 11 29 Sep 11:43:30 11:44:46 11° 300° (WNW) 11:46:01 145.826/435.025
UNISAT 6 29 Sep 11:47:40 11:48:17 10° 271° (W) 11:48:55 437.425
JAS-2 29 Sep 11:49:20 11:55:55 83° 73° (ENE) 12:03:23 435.910
HUMSAT D 29 Sep 11:52:46 11:56:35 32° 290° (WNW) 12:00:25 437.325/437.525
QB50P2 29 Sep 11:55:49 11:59:54 50° 260° (W) 12:04:01 145.880/145.840
POLYITAN 1 29 Sep 11:58:01 12:02:06 50° 260° (W) 12:06:12 437.675
UKube-1 29 Sep 12:07:16 12:09:06 12° 90° (E) 12:10:56 .
AISAT 29 Sep 12:07:40 12:11:28 28° 96° (E) 12:15:14 437.250
PHONESAT 2.4 29 Sep 12:11:22 12:14:12 45° 176° (S) 12:17:02 2401.200-2431.200
PCSat 29 Sep 12:19:00 12:23:45 30° 47° (NE) 12:28:28 145.827
Oscar 19 29 Sep 12:20:08 12:24:16 25° 64° (ENE) 12:28:25 437.125/150
50 SAT 29 Sep 12:24:09 12:27:36 37° 98° (E) 12:31:00 437.505
BUGSAT 1 29 Sep 12:29:15 12:33:19 63° 258° (WSW) 12:37:22 437.445
DUCHIFAT 1 29 Sep 12:34:30 12:37:53 24° 265° (W) 12:41:18 145.980
DX 1 29 Sep 12:37:20 12:41:18 34° 97° (E) 12:45:15 434.975-435.025
QB50P1 29 Sep 12:38:54 12:41:56 19° 267° (W) 12:44:59 145.935-145.965
AIST 2 29 Sep 12:43:10 12:47:15 52° 241° (WSW) 12:51:20 435.215
YUBILEINY 29 Sep 12:44:22 12:51:22 26° 64° (ENE) 12:58:18 435.215
Cosmos 2491 29 Sep 12:50:37 12:51:05 10° 70° (ENE) 12:51:33 435.465 / 435.565
VELOX 1 29 Sep 12:50:42 12:55:08 78° 102° (ESE) 12:59:30 145.980
CUBEBUG 1 29 Sep 12:50:43 12:55:04 79° 284° (WNW) 12:59:23 437.445
POPSAT HIP 1 29 Sep 12:53:32 12:55:46 14° 269° (W) 12:58:01 437.405
M-CUBED/EXP-1 PRIME 29 Sep 12:56:17 12:59:19 35° 104° (ESE) 13:02:22 437.505
ESTCUBE 1 29 Sep 12:58:36 13:02:55 44° 289° (WNW) 13:07:12 437.505/2401.250
TISAT 1 29 Sep 13:04:30 13:06:04 12° 90° (E) 13:07:37 437.305
ITAMSAT 1 29 Sep 13:19:17 13:21:24 12° 56° (ENE) 13:23:30 435.822/435.867
SPROUT 29 Sep 13:23:44 13:28:00 80° 286° (WNW) 13:32:15 437.525
Gurwin Techsat 1B 29 Sep 13:30:00 13:35:06 50° 70° (ENE) 13:40:14 435.225
JAS-2 29 Sep 13:37:29 13:41:56 19° 275° (W) 13:46:44 435.910
UKube-1 29 Sep 13:41:17 13:45:33 62° 287° (WNW) 13:49:47 .
AISAT 29 Sep 13:44:07 13:47:53 28° 293° (WNW) 13:51:38 437.250
PHONESAT 2.4 29 Sep 13:47:20 13:50:03 33° 193° (SSW) 13:52:45 2401.200-2431.200
AUBIESAT-1 29 Sep 13:51:43 13:54:54 47° 292° (WNW) 13:58:07 437.475
Oscar 19 29 Sep 13:58:20 14:03:19 46° 261° (W) 14:08:19 437.125/150
50 SAT 29 Sep 13:58:31 14:00:47 16° 295° (WNW) 14:03:03 437.505
PCSat 29 Sep 14:02:09 14:07:21 48° 247° (WSW) 14:12:30 145.827
AO-7 29 Sep 14:04:35 14:11:37 32° 56° (NE) 14:18:39 29.400- 29.500
ITUPSAT 1 29 Sep 14:10:57 14:13:14 13° 90° (E) 14:15:30 437.325
DX 1 29 Sep 14:13:52 14:17:19 23° 294° (WNW) 14:20:45 434.975-435.025
SWISSCUBE 29 Sep 14:22:06 14:25:36 20° 93° (E) 14:29:04 437.505
Cosmos 2504 29 Sep 14:28:31 14:35:31 42° 74° (ENE) 14:42:54 435.465 / 435.565
VELOX 1 29 Sep 14:29:18 14:30:58 12° 300° (WNW) 14:32:37 145.980
M-CUBED/EXP-1 PRIME 29 Sep 14:31:57 14:33:36 13° 301° (WNW) 14:35:15 437.505
SO-50 29 Sep 14:33:09 14:37:32 35° 116° (ESE) 14:41:51 436.795
BEESAT 29 Sep 14:34:37 14:38:28 23° 94° (E) 14:42:17 436.000
Cosmos 2491 29 Sep 14:37:19 14:45:51 59° 91° (E) 14:54:27 435.465 / 435.565
TISAT 1 29 Sep 14:37:59 14:42:07 61° 286° (WNW) 14:46:13 437.305
YUBILEINY 29 Sep 14:40:22 14:49:02 74° 266° (W) 14:57:40 435.215
ITAMSAT 1 29 Sep 14:54:52 15:00:02 84° 74° (ENE) 15:05:16 435.822/435.867
Gurwin Techsat 1B 29 Sep 15:11:14 15:15:18 22° 267° (W) 15:19:24 435.225
PHONESAT 2.4 29 Sep 15:24:33 15:25:38 11° 208° (SSW) 15:26:43 2401.200-2431.200
AIST 1 29 Sep 15:40:31 15:44:18 29° 74° (ENE) 15:48:01
MOZHAYETS 4 29 Sep 15:45:30 15:49:10 23° 93° (E) 15:52:49
ITUPSAT 1 29 Sep 15:46:45 15:51:33 71° 287° (WNW) 15:56:21 437.325
AO-7 29 Sep 15:55:37 16:03:51 66° 255° (WSW) 16:12:08 29.400- 29.500
KKS-1 29 Sep 15:58:27 16:01:29 18° 93° (E) 16:04:31 437.445
SWISSCUBE 29 Sep 15:59:00 16:03:38 48° 289° (WNW) 16:08:13 437.505
O/OREOS (USA 219) 29 Sep 16:08:45 16:12:54 32° 58° (ENE) 16:17:01 437.305
BEESAT 29 Sep 16:11:54 16:16:22 40° 291° (WNW) 16:20:50 436.000
SO-50 29 Sep 16:13:35 16:18:00 35° 314° (NW) 16:22:22 436.795
HORYU 2 29 Sep 16:17:22 16:21:04 27° 67° (ENE) 16:24:46 437.375
Cosmos 2504 29 Sep 16:22:01 16:28:49 40° 272° (W) 16:36:02 435.465 / 435.565
STARS 29 Sep 16:27:13 16:30:09 17° 93° (E) 16:33:03 437.465
Cosmos 2491 29 Sep 16:35:26 16:43:09 33° 292° (WNW) 16:50:58 435.465 / 435.565
ITAMSAT 1 29 Sep 16:38:09 16:40:10 12° 272° (W) 16:42:10 435.822/435.867
YUBILEINY 29 Sep 16:40:12 16:44:10 14° 287° (WNW) 16:48:10 435.215
NOAA 15 29 Sep 16:46:52 16:50:30 19° 60° (ENE) 16:54:08 137.62
GOMX 1 29 Sep 16:47:20 16:50:36 17° 63° (ENE) 16:53:46 467.674
BRITE-PL 29 Sep 17:04:41 17:10:09 51° 72° (ENE) 17:15:30 437.365/2234.400
CUTE-I 29 Sep 17:08:33 17:12:41 24° 63° (ENE) 17:16:49 437.470
Cubesat XI-IV 29 Sep 17:09:00 17:13:08 24° 63° (ENE) 17:17:17 437.490
CUBESAT XI-V 29 Sep 17:10:05 17:13:51 23° 93° (E) 17:17:33 437.345
AIST 1 29 Sep 17:18:19 17:21:44 24° 272° (W) 17:25:08
MOZHAYETS 4 29 Sep 17:22:08 17:26:27 39° 290° (WNW) 17:30:46
KKS-1 29 Sep 17:34:03 17:38:16 45° 289° (WNW) 17:42:29 437.445
LilacSat-2 29 Sep 17:45:09 17:48:38 37° 72° (ENE) 17:52:09 437.200
O/OREOS (USA 219) 29 Sep 17:48:18 17:52:12 28° 257° (WSW) 17:56:05 437.305
HORYU 2 29 Sep 17:53:38 17:57:31 30° 264° (W) 18:01:26 437.375
AO-7 29 Sep 17:55:28 17:58:10 12° 275° (W) 18:00:52 29.400- 29.500
STARS 29 Sep 18:02:33 18:06:44 45° 289° (WNW) 18:10:53 437.465
NOAA 18 29 Sep 18:03:52 18:09:13 58° 70° (ENE) 18:14:35 137.9125
CUSAT 1 29 Sep 18:06:18 18:11:46 28° 83° (E) 18:18:01 437.405
DANDE 29 Sep 18:17:46 18:18:59 11° 72° (ENE) 18:20:15 436.750
GOMX 1 29 Sep 18:22:49 18:28:10 72° 258° (WSW) 18:33:17 467.674
NOAA 15 29 Sep 18:24:29 18:29:45 65° 258° (WSW) 18:35:04 137.62
DOVE 4 29 Sep 18:35:02 18:39:58 70° 75° (ENE) 18:44:39 437.250
BRITE-PL 29 Sep 18:44:14 18:48:49 25° 268° (W) 18:53:19 437.365/2234.400
CUBESAT XI-V 29 Sep 18:46:59 18:51:20 38° 290° (WNW) 18:55:38 437.345
CUTE-I 29 Sep 18:47:15 18:52:24 50° 261° (W) 18:57:34 437.470
Cubesat XI-IV 29 Sep 18:47:44 18:52:52 50° 261° (W) 18:58:02 437.490
HO-68 29 Sep 18:50:17 18:56:46 39° 63° (ENE) 19:03:16 435.675
STRAND 1 29 Sep 18:58:47 19:01:45 15° 90° (E) 19:04:43 437.568
RS-15 29 Sep 19:00:27 19:10:54 42° 107° (ESE) 19:21:49 29.354- 29.394
GONETS M04 29 Sep 19:02:52 19:11:13 44° 72° (ENE) 19:19:27
SEEDS 29 Sep 19:15:48 19:19:12 24° 67° (ENE) 19:22:36 437.485
CUTE 1.7 + AOD 2 29 Sep 19:17:25 19:21:16 35° 70° (ENE) 19:25:10 437.475
CANX-2 29 Sep 19:18:55 19:22:53 41° 72° (ENE) 19:26:56 2200.000
LilacSat-2 29 Sep 19:20:47 19:23:06 15° 268° (W) 19:25:23 437.200
Cosmos 2499 29 Sep 19:26:00 19:33:21 51° 76° (ENE) 19:41:14 435.465 / 435.565
AAUSAT CUBESAT 2 29 Sep 19:33:06 19:36:10 20° 66° (ENE) 19:39:15 437.432
CINEMA 3 29 Sep 19:33:25 19:37:50 74° 76° (ENE) 19:42:07 145.822/145.860
NOAA 18 29 Sep 19:46:21 19:50:15 20° 268° (W) 19:54:10 137.9125
CUSAT 1 29 Sep 19:46:42 19:53:08 60° 286° (WNW) 20:00:51 437.405
ISS 29 Sep 19:50:57 19:54:04 45° 141° (SE) 19:57:12 145.825
DANDE 29 Sep 19:54:33 19:59:54 72° 96° (E) 20:07:00 436.750
AO-85 29 Sep 20:13:48 20:18:28 34° 116° (ESE) 20:22:53 145.980
DOVE 4 29 Sep 20:15:39 20:18:03 13° 270° (W) 20:20:24 437.250
COMPASS 1 29 Sep 20:18:03 20:22:14 78° 76° (ENE) 20:26:27 437.405
FUNcube-1 29 Sep 20:24:02 20:27:30 27° 68° (ENE) 20:30:59 145.935
CUBEBUG 2 29 Sep 20:27:48 20:32:00 77° 74° (ENE) 20:36:09 437.445
STRAND 1 29 Sep 20:36:17 20:41:25 69° 287° (WNW) 20:46:32 437.568
DELFI C3 29 Sep 20:36:49 20:39:14 16° 64° (ENE) 20:41:41 145.870
HO-68 29 Sep 20:37:36 20:44:23 45° 261° (W) 20:51:12 435.675
UWE-3 29 Sep 20:41:41 20:45:49 72° 75° (ENE) 20:49:58 435.000/436.395/437.385
SEEDS 29 Sep 20:51:00 20:54:44 31° 264° (W) 20:58:33 437.485
CUTE 1.7 + AOD 2 29 Sep 20:53:57 20:57:12 21° 267° (W) 21:00:29 437.475
PRISM 29 Sep 20:54:53 20:57:49 18° 93° (E) 21:00:43 437.425
CANX-2 29 Sep 20:56:02 20:58:57 18° 268° (W) 21:01:53 2200.000
GONETS M04 29 Sep 20:59:52 21:08:00 43° 273° (W) 21:16:02
Oscar 11 29 Sep 21:00:24 21:04:41 71° 75° (ENE) 21:09:01 145.826/435.025
ZACube-1 29 Sep 21:06:27 21:10:35 85° 80° (E) 21:14:45 437.345
AAUSAT CUBESAT 2 29 Sep 21:07:32 21:11:23 37° 263° (W) 21:15:18 437.432
HUMSAT D 29 Sep 21:10:24 21:13:16 19° 65° (ENE) 21:16:10 437.325/437.525
RS-15 29 Sep 21:11:09 21:22:47 66° 311° (NW) 21:35:02 29.354- 29.394
CINEMA 3 29 Sep 21:14:46 21:15:26 10° 271° (W) 21:16:06 145.822/145.860
Cosmos 2499 29 Sep 21:19:35 21:26:11 34° 274° (W) 21:33:14 435.465 / 435.565
SO-50 29 Sep 21:25:38 21:25:54 10° 27° (NNE) 21:26:10 436.795
ISS 29 Sep 21:27:39 21:30:38 32° 339° (NNW) 21:33:38 145.825
CUSAT 1 29 Sep 21:33:50 21:37:05 13° 308° (NW) 21:40:31 437.405
DANDE 29 Sep 21:39:22 21:43:45 21° 302° (WNW) 21:48:56 436.750
AO-85 29 Sep 21:54:08 21:58:54 38° 312° (NW) 22:03:23 145.980
UNISAT 6 29 Sep 21:58:30 22:00:50 14° 91° (E) 22:03:10 437.425
FUNcube-1 29 Sep 22:00:13 22:03:42 26° 265° (W) 22:07:13 145.935
DELFI C3 29 Sep 22:09:51 22:13:42 46° 261° (W) 22:17:36 145.870
CUBEBUG 1 29 Sep 22:14:50 22:16:05 11° 60° (ENE) 22:17:20 437.445
STRAND 1 29 Sep 22:19:38 22:19:38 10° 305° (NW) 22:19:38 437.568
ESTCUBE 1 29 Sep 22:23:19 22:26:44 21° 65° (ENE) 22:30:10 437.505/2401.250
PRISM 29 Sep 22:29:25 22:33:16 38° 290° (WNW) 22:37:04 437.425
ANTELSAT 29 Sep 22:32:30 22:36:28 31° 97° (E) 22:40:28 437.575/2403.000
Oscar 11 29 Sep 22:40:14 22:41:18 11° 272° (W) 22:42:23 145.826/435.025
HUMSAT D 29 Sep 22:44:47 22:48:36 39° 262° (W) 22:52:29 437.325/437.525
TIGRISAT 29 Sep 22:52:12 22:56:29 47° 99° (E) 23:00:50 435.000
JAS-2 29 Sep 23:00:10 23:03:55 14° 82° (E) 23:07:34 435.910
50 SAT 29 Sep 23:02:19 23:05:02 20° 67° (ENE) 23:07:47 437.505
UKube-1 29 Sep 23:03:05 23:05:16 14° 61° (ENE) 23:07:28 .
SO-50 29 Sep 23:03:15 23:07:38 42° 49° (NE) 23:11:54 436.795
AUBIESAT-1 29 Sep 23:05:01 23:07:55 20° 62° (ENE) 23:10:41 437.475
ISS 29 Sep 23:05:22 23:07:49 19° 360° (N) 23:10:17 145.825
AISAT 29 Sep 23:05:59 23:09:51 30° 68° (ENE) 23:13:43 437.250
NANOSAT C BR1 29 Sep 23:16:27 23:17:24 11° 89° (E) 23:18:20 145.865
RS-15 29 Sep 23:28:04 23:38:17 30° 342° (NNW) 23:48:47 29.354- 29.394
UNISAT 6 29 Sep 23:33:32 23:37:53 59° 287° (WNW) 23:42:20 437.425
DX 1 29 Sep 23:33:47 23:37:45 35° 69° (ENE) 23:41:44 434.975-435.025
QB50P2 29 Sep 23:39:53 23:43:15 23° 94° (E) 23:46:37 145.880/145.840
POLYITAN 1 29 Sep 23:42:03 23:45:26 23° 94° (E) 23:48:49 437.675
M-CUBED/EXP-1 PRIME 29 Sep 23:43:04 23:47:06 67° 70° (ENE) 23:50:51 437.505
CUBEBUG 1 29 Sep 23:47:16 23:51:42 84° 257° (WSW) 23:56:08 437.445
VELOX 1 29 Sep 23:48:42 23:53:08 79° 76° (ENE) 23:57:36 145.980
TISAT 1 29 Sep 23:57:57 23:59:23 12° 61° (ENE) 00:00:48 437.305
ESTCUBE 1 29 Sep 23:58:58 00:03:15 42° 261° (W) 00:07:36 437.505/2401.250
BEESAT 2 30 Sep 00:02:02 00:03:47 13° 109° (ESE) 00:05:32 435.950
ANTELSAT 30 Sep 00:09:22 00:13:04 27° 292° (WNW) 00:16:50 437.575/2403.000
BUGSAT 1 30 Sep 00:10:51 00:13:22 16° 92° (E) 00:15:52 437.445
DUCHIFAT 1 30 Sep 00:16:21 00:20:24 46° 99° (E) 00:24:27 145.980
SPROUT 30 Sep 00:17:55 00:22:11 88° 81° (E) 00:26:29 437.525
QB50P1 30 Sep 00:20:52 00:25:02 60° 101° (E) 00:29:13 145.935-145.965
TIGRISAT 30 Sep 00:29:48 00:32:51 19° 295° (WNW) 00:35:55 435.000
POPSAT HIP 1 30 Sep 00:34:35 00:38:49 85° 103° (ESE) 00:43:02 437.405
50 SAT 30 Sep 00:35:14 00:38:22 27° 264° (W) 00:41:33 437.505
UKube-1 30 Sep 00:36:30 00:40:47 65° 258° (WSW) 00:45:06 .
BEESAT 3 30 Sep 00:37:03 00:40:53 61° 121° (ESE) 00:44:47 437.485
AUBIESAT-1 30 Sep 00:38:35 00:42:13 33° 256° (WSW) 00:45:38 437.475
ISS 30 Sep 00:42:02 00:45:01 30° 20° (NNE) 00:47:59 145.825
JAS-2 30 Sep 00:42:20 00:50:15 72° 102° (ESE) 00:57:41 435.910
AISAT 30 Sep 00:42:28 00:46:17 27° 264° (W) 00:50:06 437.250
SO-50 30 Sep 00:44:13 00:47:51 24° 247° (WSW) 00:51:26 436.795
Cosmos 2491 30 Sep 00:46:28 00:54:07 31° 67° (ENE) 01:01:40 435.465 / 435.565
NANOSAT C BR1 30 Sep 00:49:23 00:53:34 69° 286° (WNW) 00:57:45 145.865
DX 1 30 Sep 01:10:33 01:14:00 23° 266° (W) 01:17:29 434.975-435.025
QB50P2 30 Sep 01:15:20 01:19:06 32° 291° (WNW) 01:22:52 145.880/145.840
POLYITAN 1 30 Sep 01:17:30 01:21:17 32° 291° (WNW) 01:25:03 437.675
ITUPSAT 1 30 Sep 01:18:30 01:21:48 19° 62° (ENE) 01:25:07 437.325
M-CUBED/EXP-1 PRIME 30 Sep 01:21:23 01:21:53 10° 263° (W) 01:22:23 437.505
VELOX 1 30 Sep 01:29:27 01:30:09 10° 272° (W) 01:30:49 145.980
SWISSCUBE 30 Sep 01:29:33 01:33:29 27° 66° (ENE) 01:37:28 437.505
TISAT 1 30 Sep 01:30:15 01:34:25 73° 257° (WSW) 01:38:37 437.305
BEESAT 2 30 Sep 01:37:10 01:41:04 62° 306° (NW) 01:45:03 435.950
BEESAT 30 Sep 01:42:00 01:46:10 31° 67° (ENE) 01:50:21 436.000
BUGSAT 1 30 Sep 01:45:08 01:48:56 42° 289° (WNW) 01:52:45 437.445
RS-15 30 Sep 01:45:34 01:55:58 30° 17° (NNE) 02:06:22 29.354- 29.394
Gurwin Techsat 1B 30 Sep 01:45:58 01:49:31 18° 91° (E) 01:53:02 435.225
YUBILEINY 30 Sep 01:47:47 01:54:47 28° 81° (E) 02:01:45 435.215
DUCHIFAT 1 30 Sep 01:53:02 01:55:44 17° 296° (WNW) 01:58:27 145.980
QB50P1 30 Sep 01:58:12 02:00:20 14° 298° (WNW) 02:02:27 145.935-145.965
Oscar 19 30 Sep 02:08:25 02:13:30 57° 101° (E) 02:18:33 437.125/150
POPSAT HIP 1 30 Sep 02:13:31 02:13:56 10° 300° (WNW) 02:14:21 437.405
BEESAT 3 30 Sep 02:16:18 02:18:56 17° 320° (NW) 02:21:34 437.485
ISS 30 Sep 02:18:26 02:21:38 51° 218° (SW) 02:24:50 145.825
JAS-2 30 Sep 02:28:09 02:34:31 28° 301° (WNW) 02:40:41 435.910
AIST 2 30 Sep 02:42:08 02:45:24 23° 113° (ESE) 02:48:42 435.215
Cosmos 2491 30 Sep 02:42:51 02:51:32 63° 268° (W) 03:00:09 435.465 / 435.565
MOZHAYETS 4 30 Sep 02:48:32 02:52:15 25° 66° (ENE) 02:55:59
ITUPSAT 1 30 Sep 02:54:35 02:59:14 53° 260° (W) 03:03:56 437.325
KKS-1 30 Sep 02:57:40 03:00:56 20° 64° (ENE) 03:04:12 437.445
PCSat 30 Sep 03:03:21 03:06:59 18° 105° (ESE) 03:10:37 145.827
SWISSCUBE 30 Sep 03:06:46 03:11:08 36° 263° (W) 03:15:32 437.505
ITAMSAT 1 30 Sep 03:06:58 03:11:23 27° 95° (E) 03:15:46 435.822/435.867
Cosmos 2504 30 Sep 03:09:33 03:15:48 31° 86° (E) 03:21:54 435.465 / 435.565
BEESAT 2 30 Sep 03:18:56 03:19:43 10° 327° (NNW) 03:20:31 435.950
BEESAT 30 Sep 03:19:45 03:23:55 30° 264° (W) 03:28:06 436.000
Gurwin Techsat 1B 30 Sep 03:24:38 03:29:53 62° 288° (WNW) 03:35:07 435.225
STARS 30 Sep 03:25:05 03:28:11 19° 64° (ENE) 03:31:16 437.465
